Back to catalog

STARLINK-5432

AliveCommunicationsVLEO
NORAD 54848·PAYLOAD·🇺🇸 United States

Launched Dec 28, 2022 from Cape Canaveral Space Force Station

Loading…

Next Passes (next 24 hours)

TLE

FreshSource: CelesTrak SupGP

Epoch: Sep 15, 2026, 02:11 UTC

1 54848C 22177AE  26258.09145833  .00059264  00000+0  21465-2 0  2587
2 54848  42.9997 132.0369 0001465 251.1602 197.4808 15.27548898    13

Track STARLINK-5432 in real time with AllMySat

Download on the App Store